Location: Laas
(43.4693°N, 0.3073°E)
Time: 14:34:15
(UTC+00:00)

Cosmos 1939 Rocket - Pass Details

Date: 25 October 2020
Orbit: 532 x 584 km, 97.4° (Epoch: 24 November)

Event Time Altitude Azimuth Distance (km) Brightness Sun altitude
Rises 18:35:57 0° 184° (S) 2,744 6.4 -18.1°
Reaches altitude 10° 18:38:12 10° 192° (SSW) 1,844 5.6 -18.5°
Maximum altitude 18:41:57 39° 262° (W) 835 4.3 -19.2°
Drops below altitude 10° 18:45:41 10° 333° (NNW) 1,829 5.8 -19.9°
Sets 18:47:55 0° 341° (NNW) 2,719 6.6 -20.3°
